Back to catalog

ANIK B1

TELESAT-4

AliveCommunicationsGEO
NORAD 11153·PAYLOAD·🇨🇦 Canada

Launched Dec 16, 1978 from Cape Canaveral Space Force Station

Loading…

TLE

FreshSource: Space-Track

Epoch: Sep 14, 2026, 14:20 UTC

1 11153U 78116A   26257.59737443 -.00000317  00000-0  00000-0 0  9990
2 11153   9.3481 315.5300 0019150 324.9332  40.1753  0.99812330136923

Track ANIK B1 in real time with AllMySat

Download on the App Store